星链-11166 [DTC] (STARLINK-11166 [DTC] )

导读 | 星芒AI

STARLINK-11166 [DTC] 是SpaceX星链(Starlink)卫星互联网项目中的一颗低轨通信卫星。该卫星属于星链计划的第二代(Gen2)卫星群,旨在提供更高速、低延迟的全球互联网服务。它采用先进推进系统和激光通信技术,以提高网络效率和卫星间通信能力。该卫星于2023年发射,运行在约550公里高度的近地轨道,是SpaceX构建全球宽带网络的重要组成部分。

基本信息
目录编号:
60062
目录名称:
STARLINK-11166
国际标识:
2024-113D
轨道中心:
EARTH
卫星名称:
星链-11166 [DTC]
卫星全名:
星链-11166 [DTC] (STARLINK-11166 [DTC] )
卫星状态:
在轨 (已飞行544 天)
发射日期:
2024-06-19 UTC
国别 :
美国 (US)
星等 :
--
轨道信息
数据来源 国际轨道数据
星历时间: 2025-12-14T14:11:00+0800
1天前
查看轨道信息
半长轴: 6737.848km
偏心率: 0.0001501
轨道倾角: 53.158°
近地点辐角 124.504°
升交点赤经 252.324°
平近点角 235.612°
近地点: 358.701km
远地点: 360.725km
周期: 91.736分钟
每日圈数: 15.697157
详细信息
固有亮度:
5
最大亮度:
0.3
卫星平台:
Starlink v2.0 mini
覆盖范围:
全球
运营商:
太空探索技术公司
运营商所在国:
美国
制造商(研发单位):
太空探索技术公司
制造商所在国:
美国
使用方式:
暂无
卫星简介
星链(Starlink)计划是由太空探索技术公司(SpaceX)提出的一个巨型低轨卫星互联网星座项目,计划在2019年至2024年间在太空搭建由约1.2万颗卫星组成的“星链”网络,其中1584颗将部署在地球上空550千米处的近地轨道,并从2020年开始工作。该卫星仍在工作。
2D轨道图
3D轨道图
轨道高度分析图
轨道倾角分析图
轨道综合分析图
查看轨道综合分析图